Regional Weather Roundup
Issued by NWS Bismarck, ND

Home | Current Version | Previous Version | Text Only | Print | Product List | Glossary On
Versions: 1 2 3 4 5 6 7 8 9 10 11 12 13 14 15 16 17 18 19 20 21 22 23 24 25 26 27 28 29 30 31 32 33 34 35 36 37 38 39 40 41 42 43 44 45 46 47 48 49 50
000
ASUS43 KBIS 292110
RWRBIS

NWR BROADCAST TEXT
NATIONAL WEATHER SERVICE BISMARCK ND
400 PM CDT FRI MAY 29 2015

NOTE: "FAIR" INDICATES FEW OR NO CLOUDS BELOW 12,000 FEET WITH NO
SIGNIFICANT WEATHER AND/OR OBSTRUCTIONS TO VISIBILITY.


CITY           SKY/WX    TMP DP  RH WIND       PRES   REMARKS
WILLISTON      SUNNY     58  32  37 NE13      30.29F
MINOT          MOSUNNY   54  33  45 NW12G22   30.27F
MINOT AFB      SUNNY     57  35  43 N9        30.26F
BISMARCK       PTSUNNY   55  35  47 N14G23    30.26S
DICKINSON        N/A    N/A N/A N/A MISG      30.26F
GARRISON         N/A     53  34  48 N8G22     30.27F
HETTINGER ARPT PTSUNNY   53  36  52 N12G18    30.28F
JAMESTOWN      MOSUNNY   57  40  52 N24       30.18S
BEACH          FAIR      55  32  41 N12G17    30.29S
CARRINGTON     FAIR      54  37  54 N18G26    30.24R
CROSBY         FAIR      54  32  43 N12       30.30F
HARVEY         FAIR      54  34  47 NE10G21   30.25S
HAZEN          MOCLDY    54  32  43 N12       30.29S
LINTON         MOCLDY    54  37  54 N17       30.23S
MANDAN         MOCLDY    54  37  54 N15       30.27S
OAKES            N/A     54  45  71 N22       30.15F
STANLEY        FAIR      54  34  47 N12       30.29S
WATFORD CITY   FAIR      54  36  50 N8        30.27F
$$

CITY           SKY/WX    TMP DP  RH WIND       PRES   REMARKS
GRAND FORKS    MOSUNNY   55  38  52 N26G32    30.18S
GRAND FORKS AF MOSUNNY   55  37  50 N23G35    30.19S
DEVILS LAKE    SUNNY     54  32  43 N21G29    30.22S
FARGO          PTSUNNY   55  42  61 N22G30    30.14F
CANDO          FAIR      55  32  41 N16G28    30.24F
CAVALIER       FAIR      50  36  57 N18G28    30.23R
GRAFTON        FAIR      52  37  58 N22G29    30.21R
LANGDON        FAIR      54  34  47 N20G29    30.23S
ROLLA          FAIR      52  32  46 NE16G23   30.25S
WALHALLA         N/A     52  32  46 MISG      30.24S
$$

CITY           SKY/WX    TMP DP  RH WIND       PRES   REMARKS
ABERDEEN       CLOUDY    53  43  68 N18G28    30.17S
MOBRIDGE       CLOUDY    56  39  53 N20G26    30.20S
BUFFALO          N/A     54  38  54 NE10      30.22S
RAPID CITY     PTSUNNY   56  42  59 N23G30    30.26S
GLASGOW        SUNNY     56  33  42 S6        30.29F
SIDNEY         SUNNY     61  32  33 CALM      30.29F
WOLF POINT     SUNNY     60  31  33 MISG      30.30F
GLENDIVE       SUNNY     57  32  38 NE6       30.30S
MILES CITY     SUNNY     60  28  29 E6        30.28F
BAKER          SUNNY     59  34  39 N12       30.28F
$$

CITY           SKY/WX    TMP DP  RH WIND       PRES   REMARKS
BILLINGS       PTSUNNY   56  44  64 E6        30.27F
GREAT FALLS    SUNNY     65  50  58 E10G17    30.15F
REGINA         MOSUNNY   55  23  28 NE8       30.33F
ESTEVAN        MOSUNNY   54  32  43 N9G20     30.30F
$$




USA.gov is the U.S. government's official web portal to all federal, state and local government web resources and services.